www.pogodaiklimat.ru

ПОГОДА в Baker Lake Climate

  • Прогноз погоды в Baker Lake Climate
  • Монитор погоды в Baker Lake Climate
  • Климат города

АРХИВ ПОГОДЫ в Baker Lake Climate

Время (UTC), дата Ветер
(напр.,м/с)
 
Видим.   Явления Облачность Т
(С)
Тd
(С)
f
(%)
Тe
(С)
Тes
(С)
Комфортность P
(гПа)
Po
(гПа)
Тmin
(С)
Tmax
(С)
R
(мм)
S
(см)
18 9.01 СЗ 3 н/о {осадки} н/о -37.4 -42.1 61 -49 -49 опасность
обморожения
1011.0 1003.8 -38.7 -36.6 1
21 9.01 СЗ 7 н/о н/о -36.4 -41.1 62 -52 -52 опасность
обморожения
1011.0 1003.9
00 10.01 СЗ 6 н/о {осадки} н/о -37.0 -41.6 62 -53 -53 опасность
обморожения
1011.9 1004.8 -38.7 -36.3 0.7
03 10.01 СЗ 7 н/о н/о -37.4 -42.0 62 -54 -54 опасность
обморожения
1011.9 1004.7
06 10.01 СЗ 8 н/о {осадки} н/о -35.8 -40.4 62 -53 -53 опасность
обморожения
1012.1 1005.0 -38.7 -35.8 0.5 7
09 10.01 СЗ 8 н/о н/о -34.1 -38.5 64 -51 -51 опасность
обморожения
1011.6 1004.5
12 10.01 З 6 н/о н/о -34.2 -38.6 64 -49 -49 опасность
обморожения
1012.0 1004.9 -38.0 -35.8 1
15 10.01 З 8 н/о {осадки} н/о -36.4 -41.0 62 -54 -54 опасность
обморожения
1012.4 1005.2 0.9
18 10.01 З 6 н/о {осадки} н/о -36.6 -41.2 62 -52 -52 опасность
обморожения
1012.3 1005.2 -38.2 -33.1 0.9
21 10.01 З 5 н/о н/о -38.2 -42.9 61 -52 -52 опасность
обморожения
1011.4 1004.3
00 11.01 Ю 1 н/о {осадки} н/о -39.0 -43.6 62 -41 -41 опасность
обморожения
1012.3 1005.2 -40.0 -34.2 0.4
03 11.01 СВ 2 н/о н/о -38.5 -43.1 62 -46 -46 опасность
обморожения
1011.8 1004.6
06 11.01 СВ 3 н/о н/о -40.1 -45.0 59 -51 -51 опасность
обморожения
1012.2 1005.0 -40.6 -33.1 12
09 11.01 С 2 н/о н/о -40.6 -45.4 60 -50 -50 опасность
обморожения
1012.9 1005.7 0.2
12 11.01 С 6 н/о {осадки} н/о -40.3 -45.2 59 -57 -57 опасность
обморожения
1014.1 1006.9 -41.1 -33.1 0.2 2
15 11.01 С 6 н/о н/о -40.8 -45.7 59 -58 -58 опасность
обморожения
1015.3 1008.1
18 11.01 СЗ 4 н/о н/о -40.0 -44.9 59 -54 -54 опасность
обморожения
1016.9 1009.6 -41.3 -39.5 0.6
21 11.01 СЗ 9 н/о н/о -39.9 -44.8 59 -59 -59 опасность
обморожения
1017.5 1010.2
00 12.01 СЗ 9 н/о н/о -39.4 -44.2 60 -59 -59 опасность
обморожения
1018.7 1011.4 -41.3 -39.0
03 12.01 СЗ 10 н/о н/о -38.9 -43.8 60 -58 -58 опасность
обморожения
1018.4 1011.1
06 12.01 СЗ 9 н/о н/о -38.5 -43.3 60 -57 -57 опасность
обморожения
1018.1 1010.9 -41.3 -38.0 5
09 12.01 СЗ 11 н/о н/о -37.6 -42.4 61 -58 -58 опасность
обморожения
1017.8 1010.6
12 12.01 СЗ 13 н/о н/о -37.6 -42.4 61 -59 -59 опасность
обморожения
1017.1 1009.9 -39.5 -38.0 1
15 12.01 СЗ 12 н/о н/о -37.4 -42.1 61 -58 -58 опасность
обморожения
1017.2 1010.0
18 12.01 СЗ 13 н/о н/о -37.1 -41.8 61 -58 -58 опасность
обморожения
1017.1 1009.9 -40.5 -36.8
21 12.01 СЗ 9 н/о н/о -36.4 -40.9 63 -55 -55 опасность
обморожения
1018.2 1011.0
00 13.01 З 5 н/о н/о -37.4 -42.0 62 -51 -51 опасность
обморожения
1019.4 1012.2 -38.6 -35.8
03 13.01 З 2 н/о н/о -36.8 -41.4 62 -46 -46 опасность
обморожения
1019.2 1012.0
06 13.01 З 4 н/о н/о -36.9 -41.4 63 -50 -50 опасность
обморожения
1019.0 1011.8 -38.6 -35.8 14
09 13.01 З 4 н/о н/о -38.2 -42.9 61 -51 -51 опасность
обморожения
1019.3 1012.1 1
12 13.01 З 3 н/о {осадки} н/о -38.4 -43.0 62 -50 -50 опасность
обморожения
1018.7 1011.5 -39.2 -35.8 2 2
15 13.01 ЮВ 1 н/о {осадки} н/о -37.3 -41.8 63 -39 -39 опасность
обморожения
1018.8 1011.6 0.3
18 13.01 Ю 2 н/о {осадки} н/о -36.6 -41.2 62 -45 -45 опасность
обморожения
1018.7 1011.5 -39.2 -35.6 2
21 13.01 СВ 2 н/о н/о -38.2 -42.8 62 -46 -46 опасность
обморожения
1018.7 1011.5 0.3
00 14.01 штиль 0 н/о {осадки} н/о -39.4 -44.1 61 -39 -39 опасность
обморожения
1018.4 1011.2 -39.8 -35.6 0.3
03 14.01 штиль 0 н/о н/о -39.7 -44.5 60 -40 -40 опасность
обморожения
1017.9 1010.7
06 14.01 С 1 н/о н/о -40.0 -44.8 60 -45 -45 опасность
обморожения
1017.2 1010.0 -40.9 -35.6
09 14.01 З 3 н/о {осадки} н/о -39.2 -43.9 61 -50 -50 опасность
обморожения
1017.0 1009.8 0.3
12 14.01 З 1 н/о {осадки} н/о -37.7 -42.3 62 -43 -43 опасность
обморожения
1016.1 1008.9 -40.9 -35.6 0.8 2
15 14.01 ЮЗ 2 н/о н/о -35.2 -39.5 65 -42 -42 опасность
обморожения
1015.5 1008.3
18 14.01 З 3 н/о {осадки} н/о -33.3 -37.8 64 -44 -44 опасность
обморожения
1014.8 1007.6 -40.9 -33.3 0.2
21 14.01 СЗ 4 н/о н/о -32.3 -36.7 65 -43 -43 опасность
обморожения
1014.2 1007.1
00 15.01 СЗ 3 н/о н/о -31.1 -35.4 66 -41 -41 опасность
обморожения
1013.9 1006.8 -40.4 -31.1
03 15.01 З 2 н/о н/о -32.5 -36.8 65 -41 -41 опасность
обморожения
1012.5 1005.4
06 15.01 З 4 н/о {осадки} н/о -36.5 -40.8 64 -49 -49 опасность
обморожения
1011.4 1004.3 -40.4 -31.0 2 9
09 15.01 СЗ 6 н/о {осадки} н/о -37.8 -42.3 63 -53 -53 опасность
обморожения
1010.4 1003.3 0.3
12 15.01 СЗ 8 н/о {осадки} н/о -36.1 -40.5 64 -54 -54 опасность
обморожения
1009.3 1002.2 -37.8 -31.0 0.6 1
15 15.01 СЗ 9 н/о н/о -33.1 -37.5 65 -50 -50 опасность
обморожения
1009.2 1002.2
18 15.01 СЗ 9 н/о н/о -34.0 -38.4 64 -52 -52 опасность
обморожения
1009.6 1002.5 -37.8 -32.5
21 15.01 СЗ 10 н/о н/о -35.1 -39.5 64 -54 -54 опасность
обморожения
1011.2 1004.1
00 16.01 СЗ 10 н/о н/о -35.6 -40.0 64 -54 -54 опасность
обморожения
1013.3 1006.2 -37.8 -32.5
03 16.01 СЗ 10 н/о н/о -36.0 -40.4 64 -55 -55 опасность
обморожения
1014.1 1007.0
06 16.01 СЗ 6 н/о н/о -37.6 -42.3 61 -53 -53 опасность
обморожения
1016.1 1008.9 -37.8 -32.5 20
09 16.01 СВ 2 н/о н/о -35.3 -39.5 65 -44 -44 опасность
обморожения
1015.8 1008.7 0.3
12 16.01 В 4 н/о {осадки} н/о -32.8 -36.7 68 -45 -45 опасность
обморожения
1013.5 1006.4 -37.7 -32.5 0.3 2
15 16.01 В 7 н/о н/о -29.4 -32.9 72 -44 -44 опасность
обморожения
1009.6 1002.6

 

Местоположение метеостанции Baker Lake Climate (Канада): широта 64.32 долгота -96.00 высота над уровнем моря 51 м.

В архиве по умолчанию представлена погода в Baker Lake Climate за последнюю неделю. Архивные данные за месяц целиком и за предыдущие месяцы, начиная с января 2011 года, Вы можете получить, выбрав интересующий диапазон дат из раскрывающегося списка и нажав кнопку "Ввод!".

Внимание! Время в таблицах - всемирное. Для получения местного времени необходимо прибавить поправку, которая в Baker Lake Climate равна -6 ч.

Ветер - указаны скорость ветра в м/с - средняя за 10 мин, порывы в срок и между сроками (в фигурных скобках) и направление, откуда дует ветер: С - северный, СВ - северо-восточный, В - восточный, ЮВ - юго-восточный, Ю - южный, ЮЗ - юго-западный, З - западный, СЗ - северо-западный.
Видимость - горизонтальная дальность видимости в метрах или километрах. При видимости от 1 до 10 км при отсутствии осадков обычно наблюдается дымка, при ухудшении видимости до 1 км и менее - туман. В сухую погоду видимость может ухудшаться дымом, пылью или мглою.
Явления - указаны атмосферные явления, наблюдавшиеся в срок или в последний час перед сроком; фигурными скобками обозначены явления, наблюдавшиеся между сроками (за 1-3 часа до срока); квадратными скобками обозначены град или гололедные отложения с указанием их диаметра в мм.
Облачность - указаны через наклонную черту общая и нижняя облачность в баллах и высота нижней границы облаков в метрах; квадратными скобками обозначены формы облаков: Ci - перистые, Cs - перисто-слоистые, Cc - перисто-кучевые, Ac - высококучевые, As - высокослоистые, Sc - слоисто-кучевые, Ns - слоисто-дождевые, Cu - кучевые, Cb - кучево-дождевые. Подробнее классификацию облаков см. в Атласе облаков (PDF).
T - Температура воздуха - температура, измеренная на высоте 2 м над землей.
Td - Температура точки росы - температура, при понижении до которой содержащийся в воздухе водяной пар достигнет насыщения.
f - Относительная влажность воздуха - влажноcть воздуха, измеренная на высоте 2 м над землей.
Te - Эффективная температура - температура, которую ощущает одетый по сезону человек в тени. Характеристика душности погоды. При расчете учитывается влияние влажности воздуха и скорости ветра на теплоощущения человека.
Tes - Эффективная температура на солнце - температура, которую ощущает человек, с поправкой на солнечный нагрев. Характеристика знойности погоды. Зависит от высоты солнца над горизонтом, облачности и скорости ветра. Ночью, в пасмурную погоду, а также при ветре 12 м/с и более поправка равна нулю.
P - Атмосферное давление - приведенное к уровню моря атмосферное давление.
Po - Атмосферное давление - измеренное на уровне метеостанции атмосферное давление.
Tmin - Минимальная температура - минимум температуры воздуха на высоте 2 м над землей.
Tmax - Максимальная температура - максимум температуры воздуха на высоте 2 м над землей.
R - Количество осадков - Количество выпавших осадков, мм. При наведении курсора мыши на число - период времени, за который выпало указанное количество осадков.
S - Снежный покров - Высота снежного покрова, см. При наведении курсора мыши на число - состояние снежного покрова и степень покрытия местности в баллах.